UNIFORM 1

导读

UNIFORM 1是一颗由日本研制的小型卫星,于北京时间2014年5月24日8时整发射升空,属于日本同期航天发射任务搭载的技术验证载荷。作为日本推动小型卫星技术发展的尝试,该卫星主要用于开展空间技术演示验证,契合当时全球小卫星技术快速发展的趋势,为日本后续微型卫星集群开发及商业航天应用积累了技术经验。

基本信息
目录编号:
39767
目录名称:
UNIFORM 1
国际标识:
2014-029B
轨道中心:
EARTH
卫星名称:
UNIFORM 1
卫星全名:
--
卫星状态:
在轨 (已飞行4486 天)
发射日期:
2014-05-24 UTC
国别 :
日本 (JP)
星等 :
--
轨道信息
数据来源 国际轨道数据
星历时间: 2026-09-04T12:55:25+0800
15小时前
查看轨道信息
半长轴: 6956.97km
偏心率: 0.0005996
轨道倾角: 97.806°
近地点辐角 56.433°
升交点赤经 344.334°
平近点角 303.746°
近地点: 574.661km
远地点: 583.005km
周期: 96.248分钟
每日圈数: 14.961412
详细信息
使用方式:
暂无
2D轨道图
3D轨道图
轨道高度分析图
轨道倾角分析图
轨道综合分析图
查看轨道综合分析图
交会数据列表
事件ID 空间交会对象 最接近时刻(TCA) 交会距离 交会风险概率(CRP) 交会风险指数(CRI) 操作
CDM_260903-085103-396003-976725
2026-09-03T
08:51:19+0000
2.050 km
极远距离
2.725506E-6 低风险 0.44
CDM_260904-154702-953703-976724
2026-09-04T
15:47:32+0000
2.075 km
极远距离
2.127727E-6 低风险 0.42
CDM_260906-025103-679703-976722
AISSAT 1 (36797)
2026-09-06T
02:51:46+0000
2.708 km
极远距离
1.540544E-6 低风险 0.39